[[{"header":{"parameterUnit":"m.s-1","parameterCategory":1,"la1":30.2992,"la2":30.254,"lo1":-89.0895,"lo2":-89.0443,"dy":0.0025,"dx":0.0025,"nx":19,"ny":19,"refTime":"2026-04-03T03:00:00:Z","depth":0,"parameterNumber":2,"parameterNumberName":"U-component_of_WINDS"},"data":[0,0,0,-5.0359,-5.0362,-5.0507,-5.0508,-5.0708,-5.071,0,0,0,0,0,0,0,0,0,0,0,-5.0325,-5.0327,-5.0358,-5.0362,-5.0507,-5.0508,-5.0708,-5.071,0,0,0,0,0,0,0,0,0,0,0,-5.0324,-5.0326,-5.0329,-5.0363,-5.0507,-5.0508,-5.0707,-5.0592,0,0,0,0,0,0,0,0,0,0,-5.0449,-5.0427,-5.0326,-5.0329,-5.0364,-5.0507,-5.0508,-5.0587,-5.06,-5.0649,0,-5.0696,0,-5.0706,-5.0725,-5.0725,0,0,0,-5.0355,-5.0417,-5.0447,-5.0329,-5.0365,-5.0507,-5.044,-5.0594,-5.0608,-5.0666,-5.0699,-5.0706,-5.071,-5.0726,-5.0727,-5.1037,-5.1039,0,0,-5.0347,-5.0356,-5.0437,-5.0457,-5.0437,-5.0435,-5.0444,-5.0602,-5.0638,-5.0699,-5.071,-5.0713,-5.0727,-5.0729,-5.1036,-5.1038,0,0,0,-5.0329,-5.0351,-5.0377,-5.045,-5.0475,-5.044,-5.045,-5.0631,-5.0639,-5.0712,-5.0715,-5.0729,-5.0731,-5.1034,-5.1036,-5.1133,0,0,0,-5.0324,-5.034,-5.0374,-5.0381,-5.0472,-5.0555,-5.0476,-5.0628,-5.0645,-5.0714,-5.0729,-5.0733,-5.1032,-5.1035,-5.1126,-5.1177,0,0,0,-5.0312,-5.0339,-5.0363,-5.0382,-5.0444,-5.0552,-5.0569,-5.0631,-5.0648,-5.0725,-5.0734,-5.103,-5.1034,-5.112,-5.1166,-5.126,0,0,0,-5.0303,-5.0447,-5.0365,-5.0528,-5.0443,-5.0612,-5.0568,-5.0692,-5.0771,-5.073,-5.1032,-5.1036,-5.1118,-5.116,-5.1253,-5.1339,-5.1376,0,0,-5.049,-5.047,-5.0565,-5.0496,-5.0681,-5.0589,-5.0788,-5.0851,-5.085,-5.0975,-5.0982,-5.1129,-5.1166,-5.1259,-5.1584,-5.1613,0,0,0,-5.0628,-5.0696,-5.0743,-5.0819,-5.0871,-5.0919,-5.095,-5.0974,-5.1079,-5.0916,-5.1188,-5.121,-5.1264,-5.1304,-5.133,-5.1375,-5.1056,-5.1055,-5.1055,-5.0905,-5.0896,-5.1053,-5.1062,-5.1136,-5.1167,-5.1226,-5.1262,-5.1232,-5.1297,-5.1333,-5.1531,-5.1579,-5.1598,-5.1645,-5.1379,-5.1379,-5.138,-5.138,-5.1177,-5.1271,-5.1229,-5.1365,-5.1355,-5.1469,-5.1506,-5.148,-5.1584,-5.1503,-5.155,-5.146,-5.163,-5.1671,-5.1387,-5.1386,-5.1385,-5.1384,-5.1384,-5.1355,-5.1399,-5.1426,-5.1534,-5.1618,-5.1623,-5.1725,-5.1713,-5.1702,-5.1749,-5.1785,-5.1783,-5.1779,-5.1768,-5.1768,-5.1769,-5.177,-5.177,-5.1771,-5.1529,-5.1556,-5.1644,-5.1712,-5.1759,-5.1819,-5.1853,-5.1899,-5.1946,-5.1929,-5.1929,-5.1891,-5.165,-5.1588,-5.1781,-5.1779,-5.1778,-5.1777,-5.1776,-5.1804,-5.174,-5.1876,-5.1923,-5.2002,-5.2086,-5.207,-5.2164,-5.22,-5.2251,-5.2204,-5.2028,-5.2006,-5.1986,-5.1935,-5.2206,-5.2206,-5.2207,-5.2207,-5.1953,-5.1942,-5.2077,-5.2153,-5.2226,-5.2226,-5.2379,-5.2407,-5.2426,-5.2448,-5.2408,-5.2339,-5.232,-5.2309,-5.2282,-5.2234,-5.2576,-5.2576,-5.2576,-5.2121,-5.2116,-5.2248,-5.2267,-5.2328,-5.2381,-5.2524,-5.2612,-5.2621,-5.2591,-5.2464,-5.2449,-5.2338,-5.2303,-5.2267,-5.2226,-5.2137,0,0]},{"header":{"parameterUnit":"m.s-1","parameterCategory":1,"la1":30.2992,"la2":30.254,"lo1":-89.0895,"lo2":-89.0443,"dy":0.0025,"dx":0.0025,"nx":19,"ny":19,"refTime":"2026-04-03T03:00:00:Z","depth":0,"parameterNumber":3,"parameterNumberName":"V-component_of_WINDS"},"data":[0,0,0,1.9909,1.991,1.9939,1.9939,1.9982,1.9982,0,0,0,0,0,0,0,0,0,0,0,1.9904,1.9905,1.9909,1.991,1.9939,1.9939,1.9982,1.9982,0,0,0,0,0,0,0,0,0,0,0,1.9904,1.9905,1.9905,1.991,1.9939,1.9939,1.9982,1.9958,0,0,0,0,0,0,0,0,0,0,1.9929,1.9927,1.9905,1.9905,1.9911,1.9939,1.9939,1.9957,1.9959,1.9971,0,1.9983,0,1.9984,1.9986,1.9986,0,0,0,1.9907,1.9925,1.993,1.9905,1.9911,1.9939,1.9925,1.9958,1.9961,1.9975,1.9984,1.9985,1.9984,1.9986,1.9986,2.0067,2.0068,0,0,1.9906,1.9911,1.9928,1.9932,1.9928,1.9924,1.9926,1.996,1.9969,1.9984,1.9986,1.9985,1.9986,1.9987,2.0067,2.0067,0,0,0,1.9903,1.991,1.9914,1.9931,1.9935,1.9925,1.9927,1.9968,1.9969,1.9986,1.9985,1.9986,1.9987,2.0066,2.0067,2.0098,0,0,0,1.9902,1.9908,1.9913,1.9917,1.9935,1.9952,1.9935,1.9966,1.997,1.9985,1.9986,1.9988,2.0065,2.0066,2.0096,2.0112,0,0,0,1.9901,1.9908,1.9914,1.9917,1.993,1.9951,1.9954,1.9967,1.997,1.9986,1.9988,2.0065,2.0066,2.0094,2.0109,2.0136,0,0,0,1.9902,1.9939,1.9914,1.9957,1.993,1.997,1.9954,1.9983,2.0001,1.9987,2.0066,2.0067,2.0093,2.0107,2.0134,2.016,2.0171,0,0,1.9952,1.9946,1.997,1.9949,1.9995,1.9965,2.0017,2.0027,2.0023,2.0053,2.0055,2.0097,2.0108,2.0135,2.0232,2.0241,0,0,0,1.9988,2.0006,2.0017,2.0035,2.0045,2.0055,2.0058,2.0062,2.0087,2.004,2.0113,2.012,2.0136,2.0148,2.0156,2.0169,2.0072,2.0072,2.0072,2.0066,2.0061,2.0102,2.0101,2.0119,2.0123,2.0137,2.0144,2.0131,2.0149,2.0158,2.0217,2.0231,2.0237,2.0252,2.0171,2.0171,2.0171,2.0171,2.014,2.0166,2.0152,2.0187,2.0181,2.021,2.0217,2.0208,2.0235,2.0209,2.0223,2.0196,2.0247,2.026,2.0173,2.0173,2.0173,2.0172,2.0172,2.0191,2.0203,2.0209,2.0236,2.0258,2.0256,2.0283,2.0277,2.0271,2.0285,2.0294,2.0294,2.0293,2.029,2.029,2.029,2.029,2.0291,2.0291,2.0242,2.0248,2.0272,2.0289,2.0301,2.0316,2.0322,2.0334,2.0346,2.0339,2.0339,2.0327,2.0253,2.0235,2.0294,2.0293,2.0293,2.0293,2.0292,2.032,2.0302,2.0339,2.0352,2.0372,2.0396,2.0388,2.0413,2.0422,2.0437,2.0422,2.0368,2.0361,2.0355,2.034,2.0422,2.0422,2.0422,2.0422,2.0363,2.036,2.0398,2.0419,2.0439,2.0437,2.0481,2.0487,2.049,2.0496,2.0483,2.0463,2.0457,2.0453,2.0445,2.0431,2.0535,2.0535,2.0535,2.0412,2.041,2.0448,2.0453,2.0469,2.0483,2.0525,2.055,2.055,2.0539,2.0501,2.0496,2.0463,2.0453,2.044,2.0428,2.0402,0,0]}]]